Location: Saratoga Springs
(43.0831°N, 73.7850°W)
Time: 17:08:31
(UTC-04:00)

Vanguard 2 - Pass Details

Date: 23 April 2024
Orbit: 553 x 2914 km, 32.9° (Epoch: 19 May)

Event Time Altitude Azimuth Distance (km) Brightness Sun altitude
Rises 01:40:16 0° 231° (SW) 5,327 - -33.2°
Reaches altitude 10° 01:43:32 10° 225° (SW) 4,611 - -33.0°
Exits shadow 01:55:01 47° 170° (S) 3,258 10.2 -32.5°
Maximum altitude 01:56:32 48° 157° (SSE) 3,286 10.3 -32.4°
Drops below altitude 10° 02:12:54 10° 92° (E) 5,729 12.2 -31.3°
Sets 02:17:30 0° 87° (E) 6,672 12.6 -31.0°
